Dewpoint
50 50 50 49 49 50 49 49 49 48 48 48 49 49 49 49 49 48 48 48 49 49 50 50 50 51 51 51 51 51 52 45 41 39 31 34 46 59 58 58 57 61 58 42 38 38 24 20 28 33 28 21 19 14 14 12 11 13 14 13 15 7 0 -1 -5 -12 9 9 12 13 12 13 14 12 32 35 38 35 39 45 46 49 48 57 61 62 63 64
49 50 49 49 49 49 49 49 48 48 48 49 48 48 49 49 49 50 49 48 48 49 49 50 50 50 50 50 51 51 48 44 42 37 31 38 57 57 57 59 58 58 56 35 30 33 26 21 27 29 24 18 16 12 10 11 12 14 11 12 10 8 3 -2 3 13 10 10 13 12 11 16 18 18 36 34 33 35 40 44 48 48 52 55 61 62 64 64
49 49 49 49 48 49 49 49 49 48 48 48 48 48 49 49 50 50 50 49 48 48 50 50 50 50 50 50 51 52 47 41 40 34 32 51 54 56 57 57 57 57 31 20 23 26 20 21 23 22 20 15 12 8 8 11 12 13 13 9 7 6 4 9 13 12 14 11 14 16 25 28 22 20 32 32 35 35 39 42 45 48 52 56 59 62 62 63
49 49 49 48 49 49 49 48 48 48 48 48 48 48 49 48 49 49 49 49 48 48 49 50 50 50 50 50 51 48 43 40 29 19 40 62 55 55 56 56 57 53 27 16 12 18 20 16 18 19 17 11 10 7 9 10 11 9 11 10 5 4 5 8 14 14 14 12 13 16 27 29 23 21 19 34 35 34 37 39 44 46 50 51 59 61 62 62
49 49 49 49 49 49 48 48 48 48 49 47 48 48 47 48 48 48 49 50 50 49 49 49 49 50 50 50 52 45 40 16 4 27 41 61 59 58 57 56 59 26 17 14 13 17 19 16 16 17 16 11 7 7 10 10 11 11 8 9 10 7 7 6 10 15 13 12 9 14 19 28 27 28 15 32 34 32 34 38 43 48 51 51 56 61 61 61
49 49 48 49 49 48 48 48 47 48 48 48 47 47 48 47 48 48 48 49 49 49 49 49 49 50 50 51 47 41 37 5 29 31 63 62 59 58 58 58 61 26 13 12 12 16 19 18 16 16 16 12 8 8 8 11 13 12 10 6 8 8 9 7 10 15 14 13 9 10 11 23 29 26 26 30 29 30 32 38 45 46 48 51 57 60 61 60
49 49 48 48 49 48 48 48 48 47 47 48 48 48 47 47 47 48 49 48 48 48 48 48 49 49 50 51 44 41 36 29 25 33 64 61 62 60 59 58 58 30 16 9 10 13 17 17 16 15 15 11 8 6 7 7 11 11 10 10 9 10 11 9 12 15 15 10 9 7 8 20 26 21 27 26 27 28 36 42 43 43 46 47 52 59 60 60
49 49 49 48 48 48 48 48 47 47 47 47 48 48 47 46 47 48 48 49 49 49 49 48 48 49 50 43 39 33 30 20 19 35 60 64 57 55 55 38 33 26 23 11 8 10 14 14 13 14 13 10 5 5 5 7 7 9 9 11 11 10 9 14 15 15 11 10 8 8 8 10 14 18 21 25 28 33 35 40 41 43 45 46 45 54 59 59
49 49 48 49 48 47 47 47 47 47 47 47 48 49 47 47 47 47 48 48 49 48 48 48 49 49 50 44 39 30 24 24 20 40 54 49 43 45 40 33 28 18 21 16 9 10 13 12 12 12 11 10 6 2 6 7 7 7 9 10 9 7 7 11 16 15 10 9 8 7 7 6 10 23 23 23 28 35 37 39 40 42 43 43 47 49 54 58
49 48 48 48 48 47 47 47 47 47 47 48 48 48 48 48 47 47 48 48 48 47 48 48 48 49 45 39 36 28 14 16 27 37 41 35 40 42 35 26 26 16 16 16 12 10 10 10 10 12 12 9 5 3 1 5 5 6 7 8 8 9 7 7 14 14 11 9 7 5 5 5 10 21 17 24 25 34 38 39 39 39 44 46 49 54 58 61
49 48 48 48 47 47 47 48 47 47 48 48 48 48 49 48 48 47 47 47 47 48 48 48 48 47 41 40 36 21 19 20 27 25 26 30 41 40 34 27 26 17 12 13 12 10 8 9 11 11 10 8 6 3 -0 3 5 12 10 7 6 8 8 6 10 13 11 8 7 5 3 5 11 16 20 23 28 30 37 38 37 40 42 45 48 52 58 64
49 49 48 47 47 47 47 47 47 47 47 47 47 47 47 47 47 47 47 47 47 47 47 48 47 44 42 39 36 30 23 18 28 30 32 30 31 34 33 27 27 21 12 9 10 9 7 7 8 7 6 7 4 3 3 3 5 8 11 7 4 4 5 6 8 10 11 7 5 5 4 5 8 10 14 21 26 26 34 37 37 39 41 46 51 52 62 63
49 49 48 47 47 46 47 47 47 47 48 47 47 47 46 47 47 47 47 47 47 47 48 47 47 43 42 37 32 34 34 28 25 29 30 28 24 27 30 27 28 24 17 10 9 8 7 7 8 6 7 3 1 4 7 6 7 7 7 9 4 1 3 6 8 9 9 6 5 4 4 5 5 4 23 24 25 25 34 36 36 39 43 46 47 60 62 63
49 48 48 47 47 46 46 46 47 47 47 47 47 47 47 47 47 48 47 46 46 47 47 47 44 43 42 36 31 24 22 24 22 18 23 21 28 28 30 30 30 28 21 16 12 9 7 7 7 8 9 5 5 4 7 5 6 6 7 10 9 2 3 6 8 9 9 8 6 5 6 3 3 12 28 27 30 27 34 34 37 40 43 44 61 62 62 63
48 48 48 47 47 46 46 46 47 47 47 47 47 47 48 48 48 47 47 46 47 47 48 48 44 42 40 30 29 28 49 32 22 14 15 12 15 21 25 23 24 27 24 18 14 9 8 8 9 8 8 10 8 8 6 5 4 5 6 7 6 4 3 4 9 9 8 6 6 4 8 3 2 24 30 28 31 32 34 35 35 39 44 60 59 61 61 62
47 48 48 47 47 46 46 46 46 47 47 47 47 48 48 48 48 47 46 45 46 47 44 41 41 40 37 33 32 39 28 19 18 14 11 8 8 11 24 22 21 24 21 16 15 14 11 8 7 10 10 11 8 6 10 5 6 6 6 10 3 2 2 1 6 8 8 5 6 4 2 3 0 27 27 29 29 32 34 34 38 41 58 58 59 59 61 62
48 47 48 48 46 46 46 47 47 47 46 47 47 49 49 49 48 48 47 46 44 43 40 38 37 39 30 22 23 18 20 17 17 14 10 6 6 8 22 20 20 20 19 20 20 22 16 13 15 14 11 8 5 7 14 10 11 7 4 7 2 -0 2 -1 4 6 7 4 4 5 2 4 8 12 14 21 24 29 31 34 39 55 53 54 57 59 60 60
49 48 47 47 46 46 46 47 47 47 47 46 47 47 44 48 49 49 46 45 39 39 38 38 39 37 33 32 23 19 18 17 15 13 8 2 2 4 18 20 21 20 20 18 22 22 20 17 14 11 9 9 6 9 15 9 12 10 9 8 3 -1 1 -1 3 5 6 3 5 5 2 19 15 12 13 17 20 25 29 33 46 54 53 57 58 58 59 60
48 48 47 47 45 46 47 47 47 47 46 47 47 49 49 50 45 42 40 38 37 36 30 31 38 28 9 20 21 20 16 15 14 10 3 -1 1 4 19 23 18 19 18 18 20 21 19 16 13 9 6 7 8 8 13 9 6 6 4 1 0 1 -3 -2 3 5 6 3 3 3 1 21 25 20 18 17 21 24 29 51 52 51 54 56 57 59 59 60
48 49 47 47 46 46 47 47 46 47 46 46 41 43 41 40 40 38 38 35 33 28 18 26 33 26 21 18 15 17 17 13 10 5 -1 -3 0 6 20 22 17 18 17 17 17 17 16 12 10 7 4 4 9 10 10 7 4 4 3 -1 -3 -2 -3 -4 3 5 4 2 3 2 20 25 25 23 22 20 22 30 52 51 54 56 57 58 59 60 60 60
48 49 48 46 46 46 47 46 47 47 48 43 40 36 32 33 30 26 35 32 29 28 25 21 28 24 19 16 12 13 9 9 8 3 -2 -1 1 11 19 21 18 19 15 14 14 14 11 11 8 5 1 4 8 12 15 7 4 1 2 0 -4 -1 -2 -1 5 5 5 11 2 6 25 27 29 29 27 32 34 50 51 53 54 56 56 57 58 57 57 58
49 48 47 47 46 46 47 47 46 47 47 44 40 35 32 28 30 33 32 29 28 26 22 22 22 23 23 21 19 13 12 4 3 4 5 1 2 8 18 21 19 16 15 14 13 15 12 10 8 5 3 3 8 9 11 10 7 3 3 2 -0 0 1 2 2 6 6 3 4 2 26 31 33 32 38 49 50 52 53 53 54 54 54 55 55 55 55 56
49 48 47 46 46 46 46 46 46 46 45 43 38 34 33 33 33 31 33 31 30 29 25 20 17 18 21 21 17 20 15 9 7 8 4 3 4 5 17 21 21 18 15 14 12 15 13 6 7 4 5 5 8 10 11 10 10 7 8 7 2 0 3 2 3 6 5 7 5 17 31 33 37 40 46 48 49 50 51 52 52 53 53 53 54 54 54 54
48 48 48 46 45 45 46 46 48 46 42 38 36 35 34 32 28 29 30 29 26 25 28 26 19 16 18 18 17 18 18 15 10 8 8 5 3 4 13 20 20 20 17 14 11 10 8 6 6 3 5 8 10 10 12 12 8 10 9 7 1 -1 1 1 2 4 5 4 9 30 33 33 34 35 42 46 47 47 48 49 51 52 53 53 53 53 53 53
48 48 46 46 45 45 45 48 43 41 41 38 36 35 34 35 31 30 32 28 26 24 24 26 22 16 16 19 17 15 16 15 11 8 8 5 3 3 7 19 19 17 16 14 11 9 8 7 6 3 3 7 8 8 9 10 8 11 12 9 3 -1 -1 -2 2 4 7 7 6 28 31 36 36 37 41 44 44 45 46 47 48 50 51 51 51 52 53 53
48 48 46 45 45 45 47 41 38 38 38 36 35 34 31 32 31 30 31 25 18 17 17 18 22 16 15 14 16 14 14 12 12 8 7 6 9 3 8 16 18 15 14 13 10 11 9 10 7 3 2 4 4 4 6 7 10 13 11 11 9 -1 -2 -0 4 6 6 3 14 24 26 29 36 34 38 41 42 44 47 47 46 48 49 50 50 51 52 52
47 47 45 44 45 47 41 34 36 32 35 32 33 32 28 27 36 37 29 21 19 18 14 15 19 15 13 12 13 12 9 9 11 10 7 10 4 4 7 15 18 16 14 15 13 7 10 10 8 5 2 2 3 4 10 9 8 7 10 10 8 1 -3 -1 3 7 11 12 14 20 22 25 28 30 34 40 42 41 43 46 47 47 48 49 50 50 51 51
47 46 45 44 45 45 39 39 39 34 26 28 26 28 25 31 37 36 32 19 14 16 13 17 18 13 10 10 11 7 9 8 8 9 9 10 7 4 6 13 16 14 15 11 11 10 16 11 10 5 3 1 1 4 11 10 5 8 10 6 3 2 1 -1 9 10 10 10 10 15 20 22 25 30 34 39 40 41 41 44 46 47 48 49 49 50 50 51
48 45 44 44 44 45 44 41 40 38 32 29 29 27 30 40 35 33 23 16 16 12 17 17 16 9 7 8 7 5 5 6 5 8 10 12 9 5 7 10 16 13 13 12 11 11 10 11 11 6 1 1 2 4 5 7 7 10 9 3 2 1 1 3 3 7 10 13 15 14 19 18 18 31 35 41 40 41 43 44 44 46 47 48 49 49 50 50
46 44 45 45 46 44 43 42 40 41 39 31 27 28 35 38 34 29 24 16 13 13 15 14 9 7 6 5 4 4 5 4 3 6 10 12 10 6 5 10 14 14 11 11 10 8 10 17 15 7 2 2 3 3 3 10 11 11 9 -3 2 0 5 8 7 8 13 14 14 14 19 17 17 25 32 37 38 39 44 45 46 46 46 47 48 48 48 48
45 45 45 46 42 39 41 40 37 36 35 32 31 32 36 33 29 21 19 16 11 13 13 10 8 7 4 3 3 5 5 3 -0 12 16 15 10 7 6 8 13 13 13 10 9 9 7 9 10 9 8 2 6 10 13 12 12 8 4 5 4 8 8 12 13 10 14 12 11 10 16 19 16 35 37 41 40 42 44 44 45 45 45 46 47 46 47 47
45 45 46 46 41 42 40 37 37 32 33 33 34 34 33 21 27 21 18 16 11 12 11 11 10 7 4 3 3 4 3 3 -1 10 15 13 11 6 7 10 15 14 11 10 10 10 10 7 6 7 13 7 14 13 10 7 3 3 4 6 9 7 16 9 7 14 11 11 12 8 11 17 18 40 41 46 39 44 45 44 45 45 45 46 45 46 46 46
45 46 46 45 44 43 41 41 38 40 40 37 35 34 29 21 18 23 23 12 14 14 12 13 10 8 5 3 3 3 3 1 -1 7 13 11 7 5 7 8 13 17 13 15 12 12 12 8 6 6 8 14 10 10 6 2 2 3 4 8 8 7 8 12 7 12 9 10 6 8 8 20 41 42 42 43 44 43 44 45 45 45 45 45 44 45 45 45
45 46 45 44 42 40 42 45 40 39 39 39 37 35 29 21 20 24 23 16 18 13 14 13 12 10 5 4 5 3 0 0 0 3 9 10 5 9 6 11 13 15 17 16 11 10 11 7 6 10 11 16 16 10 2 3 5 3 3 4 9 10 9 12 6 10 9 8 10 7 8 36 37 42 45 44 44 44 44 43 44 44 44 44 43 43 43 44
46 47 46 44 43 41 42 40 41 40 39 36 35 31 23 20 19 17 19 18 21 17 14 13 11 9 6 6 7 3 0 3 1 3 6 7 7 6 8 10 14 14 13 16 18 16 6 10 10 14 14 12 14 13 6 2 5 3 3 8 9 11 11 5 10 8 11 9 12 12 27 38 42 45 45 44 43 43 43 42 43 43 43 43 43 43 44 44
45 42 43 40 39 40 40 39 41 40 36 34 31 26 22 21 19 14 20 21 16 19 17 9 9 7 7 7 7 2 -1 1 3 5 6 5 5 5 6 10 14 16 14 17 19 14 11 12 9 13 14 13 12 10 8 6 10 7 2 8 10 10 7 21 20 22 24 18 9 38 40 43 44 45 43 43 42 42 42 42 42 42 43 44 44 44 44 45
40 42 38 39 38 39 40 39 37 38 36 33 29 24 25 22 19 18 30 25 30 28 29 7 9 6 8 7 5 -1 -2 -0 7 5 9 5 7 3 7 10 13 13 12 14 20 15 14 10 9 11 10 9 8 8 8 7 3 7 5 3 7 8 7 20 11 17 13 13 19 34 38 39 38 36 42 41 41 41 41 41 42 43 43 43 43 44 44 44
42 41 42 38 37 39 39 38 39 37 34 31 26 28 24 21 21 27 28 28 34 28 32 15 10 7 9 7 3 -3 -3 0 6 7 10 7 9 4 6 10 12 13 9 10 17 18 15 9 6 12 13 14 10 9 7 9 6 6 5 5 7 13 9 13 18 15 12 15 12 35 36 37 35 39 41 40 40 41 41 42 42 41 42 42 42 43 43 44
44 42 37 38 37 38 38 39 38 35 32 28 25 23 22 23 26 28 26 29 28 26 27 26 13 8 9 7 4 -3 -3 3 2 8 12 11 9 9 5 9 8 8 10 12 14 20 18 13 9 9 12 11 10 9 12 11 11 9 7 6 7 11 12 10 15 12 14 14 15 32 32 32 34 40 41 40 40 41 41 41 41 41 42 42 42 42 43 43
43 37 34 37 37 38 37 38 35 34 32 24 22 21 19 19 23 26 28 29 30 29 34 33 21 13 8 7 3 1 -4 -3 -0 8 7 15 9 8 6 7 7 8 9 11 10 13 17 24 13 9 9 10 10 11 10 11 10 4 4 6 6 16 7 5 17 5 11 14 12 23 28 35 42 42 40 40 40 41 42 41 41 41 41 42 42 42 43 43
42 38 38 38 38 40 38 34 32 29 26 26 23 19 18 21 27 29 30 31 29 28 28 29 28 22 11 8 3 1 -2 -4 2 10 8 8 8 11 7 7 9 12 7 9 10 20 21 15 17 14 10 9 10 10 10 10 6 -2 3 7 3 4 4 5 10 3 6 9 15 18 29 38 44 47 46 40 41 42 42 41 41 41 41 42 43 43 43 43
40 32 37 42 46 43 32 29 29 29 26 23 21 19 19 26 24 28 29 27 25 26 30 27 29 26 26 10 5 -1 -2 -4 2 11 10 11 10 12 8 8 9 9 10 13 12 20 23 25 18 19 13 12 9 9 10 8 10 9 7 6 5 8 7 5 8 10 5 1 4 19 32 36 44 47 46 42 41 41 41 41 41 41 41 42 42 42 42 42
38 34 41 41 42 34 31 28 27 27 26 22 20 17 16 21 26 27 27 24 23 24 26 35 25 24 22 21 16 -0 -3 0 1 11 10 9 11 10 11 9 8 11 8 14 10 18 29 23 14 14 12 11 9 8 10 8 6 5 4 4 4 8 4 5 7 15 13 16 12 32 33 37 44 46 44 42 42 42 41 41 41 41 41 41 41 41 41 41
39 38 39 42 42 35 32 25 24 24 25 23 21 18 16 20 24 26 26 24 26 25 29 27 25 22 21 17 18 8 -2 12 0 8 13 9 13 11 12 8 9 10 9 15 18 27 21 23 17 16 16 14 13 9 5 4 2 7 10 9 5 8 7 11 11 36 19 20 12 29 32 35 43 44 43 42 41 41 41 41 41 40 41 41 40 40 40 41
39 40 37 39 42 39 31 29 27 26 24 24 21 19 20 22 23 25 26 23 23 25 25 26 24 21 19 19 18 17 14 1 12 6 11 15 15 12 13 11 10 13 8 14 39 18 19 25 21 15 15 14 13 10 7 11 5 11 12 7 6 6 14 17 13 18 16 23 13 31 35 39 43 42 41 41 40 40 40 41 41 40 40 40 40 40 40 40
38 26 31 32 35 35 35 36 38 34 32 32 24 21 22 25 24 26 23 20 24 27 27 27 26 25 23 23 21 14 12 3 10 13 11 13 12 12 12 10 11 12 27 42 35 23 25 26 22 19 17 14 15 14 17 10 10 7 14 14 13 11 9 17 27 18 15 24 36 37 37 37 39 40 39 39 40 39 40 40 39 39 40 41 40 40 40 40
40 29 28 27 32 33 31 31 31 31 29 31 24 27 27 24 25 25 21 24 24 27 27 26 25 27 27 25 25 16 14 7 7 12 14 12 13 15 15 11 11 19 41 37 33 21 23 18 20 23 23 29 27 24 15 12 9 7 12 18 16 14 19 24 22 22 25 29 32 38 38 37 38 39 40 39 39 39 39 39 39 39 40 40 40 40 41 38
33 28 27 29 27 25 26 27 26 27 30 32 30 32 33 31 26 26 28 27 27 30 30 27 26 26 25 24 25 26 24 11 12 22 14 15 16 16 13 11 10 34 31 12 16 24 23 21 22 22 25 31 27 25 28 17 14 15 12 17 22 16 21 24 27 29 37 27 33 39 39 38 38 39 39 39 39 38 38 39 39 40 39 39 38 37 37 37
41 38 39 36 23 37 26 28 32 32 34 33 34 31 29 31 31 29 30 37 31 30 28 28 28 25 23 23 25 25 28 17 21 21 27 27 24 23 19 13 19 17 12 15 14 28 25 19 25 23 28 27 26 27 26 23 19 15 15 15 18 21 23 23 25 26 36 40 40 39 39 38 39 39 39 39 39 38 39 39 39 38 38 37 36 36 36 36
41 39 37 39 42 39 37 36 40 38 36 37 31 27 30 32 32 31 31 30 31 33 35 30 25 24 24 23 30 28 31 35 34 27 41 45 41 29 23 21 25 20 12 19 19 30 23 18 30 32 29 25 26 28 37 31 23 23 20 15 16 17 39 40 24 40 41 40 39 39 38 38 39 39 39 39 39 38 38 37 37 38 37 36 36 34 34 35
46 45 43 41 38 37 37 33 30 29 25 29 26 29 33 33 31 32 33 32 32 33 32 30 28 29 34 35 37 25 30 33 35 37 39 39 34 35 27 24 13 21 15 21 22 30 28 28 32 36 27 27 28 35 39 39 39 39 38 39 41 41 39 42 37 41 40 38 39 38 36 36 40 38 38 38 38 37 37 37 37 38 36 35 34 34 34 35
45 48 46 44 36 34 32 33 31 27 23 32 33 34 34 33 35 32 32 33 32 31 32 32 38 35 36 37 40 37 39 36 35 38 39 38 41 42 27 19 16 22 20 24 27 24 25 28 33 33 28 26 29 39 39 39 38 36 35 37 40 41 41 42 43 42 41 40 37 34 35 37 38 38 37 37 37 36 36 37 37 36 34 33 33 34 34 34